Weather History for Fredericksburg, TX

Change the Weather History Date:

Thursday, April 3, 2014

  Actual Average (KSAT) Record (KSAT)
Temperature  
Mean Temperature 71 °F 66 °F  
Max Temperature 82 °F 78 °F 97 °F (1989)
Min Temperature 60 °F 55 °F 31 °F (1987)
Degree Days  
Heating Degree Days 0 2  
Month to date heating degree days 8  
Since 1 July heating degree days 1463  
Cooling Degree Days 6 4  
Month to date cooling degree days 11  
Year to date cooling degree days 102  
Growing Degree Days 21 (Base 50)    
Moisture  
Dew Point 64 °F    
Average Humidity 75    
Maximum Humidity 93    
Minimum Humidity 37    
Precipitation  
Precipitation 0.22 in 0.06 in 1.92 in (1914)
Month to date precipitation 0.17  
Year to date precipitation 6.03  
Snow  
Snow 0.00 in - - ()
Month to date snowfall  
Since 1 July snowfall  
Snow Depth -    
Sea Level Pressure  
Sea Level Pressure 29.78 in    
Wind  
Wind Speed 7 mph (South)    
Max Wind Speed 13 mph    
Max Gust Speed 18 mph    
Visibility 9 miles    
Events Rain , Thunderstorm    
T = Trace of Precipitation, MM = Missing Value Source: NWS Daily Summary

Daily Weather History Graph

Daily Weather History Graph

Search for Another Location

Airport:

Trip Planner

Search our weather history database for the weather conditions in past years. The results will help you decide how hot, cold, wet, or windy it might be!

Date:

Astronomy

Apr. 03, 2014 Rise Set
Actual Time 7:22 AM CDT 7:55 PM CDT
Civil Twilight 6:58 AM CDT 8:19 PM CDT
Nautical Twilight 6:29 AM CDT 8:48 PM CDT
Astronomical Twilight 6:01 AM CDT 9:17 PM CDT
Moon 10:06 AM CDT (4/3) No Moon Set
Length of Visible Light 13h 21m
Length of Day
12h 33m
Waxing Crescent, 17% of the Moon is Illuminated
Apr 3
Waxing Crescent
Apr 7
First Quarter
Apr 15
Full
Apr 22
Last Quarter
Apr 29
New

Hourly Weather History & Observations

Time (CDT) Temp. Heat Index Dew Point Humidity Pressure Visibility Wind Dir Wind Speed Gust Speed Precip Events Conditions
12:15 AM 70.7 °F - 66.6 °F 87% 29.77 in 10.0 mi SSE 5.8 mph - N/A   Scattered Clouds
12:35 AM 70.7 °F - 66.7 °F 87% 29.77 in 10.0 mi SSE 4.6 mph - N/A   Scattered Clouds
12:55 AM 70.3 °F - 66.7 °F 88% 29.78 in 10.0 mi SE 3.5 mph - N/A   Mostly Cloudy
1:15 AM 70.7 °F - 66.7 °F 87% 29.77 in 10.0 mi SSE 3.5 mph - N/A   Overcast
1:35 AM 70.7 °F - 67.1 °F 88% 29.77 in 10.0 mi SSE 4.6 mph - N/A   Overcast
1:55 AM 70.7 °F - 67.1 °F 88% 29.78 in 10.0 mi SSE 3.5 mph - N/A   Overcast
2:15 AM 70.7 °F - 67.1 °F 88% 29.78 in 10.0 mi South 4.6 mph - N/A   Overcast
2:35 AM 70.7 °F - 67.1 °F 88% 29.78 in 10.0 mi SE 4.6 mph - N/A   Overcast
2:55 AM 70.7 °F - 67.1 °F 88% 29.77 in 10.0 mi SSE 3.5 mph - N/A   Overcast
3:15 AM 70.3 °F - 66.9 °F 89% 29.76 in 10.0 mi South 3.5 mph - N/A   Overcast
3:35 AM 70.2 °F - 66.7 °F 89% 29.76 in 7.0 mi SSE 3.5 mph - N/A   Overcast
3:55 AM 70.2 °F - 66.6 °F 88% 29.75 in 7.0 mi SSE 6.9 mph - N/A   Overcast
4:15 AM 70.2 °F - 66.6 °F 88% 29.76 in 7.0 mi SSE 8.1 mph - N/A   Overcast
4:35 AM 70.3 °F - 66.4 °F 87% 29.78 in 10.0 mi SW 6.9 mph - N/A   Overcast
4:55 AM 70.2 °F - 66.4 °F 88% 29.78 in 7.0 mi SSW 6.9 mph - N/A   Overcast
5:15 AM 70.3 °F - 66.6 °F 88% 29.78 in 7.0 mi SSW 12.7 mph - N/A   Overcast
5:35 AM 70.3 °F - 66.4 °F 87% 29.78 in 7.0 mi SSW 9.2 mph - N/A   Overcast
5:55 AM 70.5 °F - 66.4 °F 87% 29.76 in 7.0 mi South 8.1 mph - N/A   Overcast
6:15 AM 70.2 °F - 66.2 °F 87% 29.76 in 7.0 mi SSE 10.4 mph - N/A   Overcast
6:35 AM 70.0 °F - 65.7 °F 86% 29.76 in 10.0 mi South 8.1 mph 18.4 mph N/A   Overcast
6:55 AM 70.0 °F - 65.5 °F 86% 29.78 in 10.0 mi SSW 5.8 mph - N/A   Overcast
7:15 AM 70.0 °F - 65.5 °F 86% 29.78 in 10.0 mi South 10.4 mph - N/A   Overcast
7:35 AM 69.8 °F - 65.5 °F 86% 29.79 in 10.0 mi South 5.8 mph - N/A   Overcast
7:55 AM 69.8 °F - 65.3 °F 86% 29.79 in 7.0 mi South 8.1 mph - N/A   Overcast
8:15 AM 70.0 °F - 65.3 °F 85% 29.79 in 7.0 mi South 6.9 mph - N/A   Overcast
8:35 AM 70.2 °F - 64.6 °F 82% 29.78 in 10.0 mi South 12.7 mph 17.3 mph N/A   Overcast
8:55 AM 70.7 °F - 64.6 °F 81% 29.79 in 10.0 mi South 9.2 mph - N/A   Overcast
9:15 AM 70.7 °F - 64.6 °F 81% 29.80 in 10.0 mi South 8.1 mph - N/A   Overcast
9:35 AM 70.7 °F - 64.6 °F 81% 29.81 in 10.0 mi South 10.4 mph - N/A   Overcast
9:55 AM 71.1 °F - 64.8 °F 80% 29.81 in 10.0 mi SSW 11.5 mph - N/A   Overcast
10:15 AM 71.6 °F - 64.9 °F 79% 29.80 in 10.0 mi SSW 9.2 mph 16.1 mph N/A   Overcast
10:35 AM 72.5 °F - 65.3 °F 78% 29.80 in 10.0 mi South 11.5 mph - N/A   Overcast
10:55 AM 72.7 °F - 64.8 °F 76% 29.81 in 10.0 mi South 12.7 mph - N/A   Overcast
11:15 AM 73.4 °F - 64.9 °F 75% 29.81 in 10.0 mi South 11.5 mph - N/A   Overcast
11:35 AM 73.6 °F - 64.9 °F 74% 29.82 in 10.0 mi SSW 10.4 mph - N/A   Mostly Cloudy
11:55 AM 74.1 °F - 64.8 °F 72% 29.80 in 10.0 mi SW 6.9 mph - N/A   Scattered Clouds
12:15 PM 74.5 °F - 64.8 °F 72% 29.80 in 10.0 mi SSW 8.1 mph - N/A   Scattered Clouds
12:35 PM 75.0 °F - 64.8 °F 70% 29.79 in 10.0 mi South 6.9 mph - N/A   Scattered Clouds
12:55 PM 75.7 °F - 64.6 °F 68% 29.78 in 10.0 mi South 11.5 mph 17.3 mph N/A   Scattered Clouds
1:15 PM 75.6 °F - 64.2 °F 68% 29.80 in 10.0 mi SSW 12.7 mph - N/A   Scattered Clouds
1:35 PM 76.3 °F - 64.4 °F 67% 29.79 in 10.0 mi SSW 8.1 mph - N/A   Scattered Clouds
1:55 PM 77.4 °F - 64.2 °F 64% 29.78 in 10.0 mi South 8.1 mph - N/A   Clear
2:15 PM 77.4 °F - 63.7 °F 63% 29.77 in 10.0 mi South 9.2 mph - N/A   Clear
2:35 PM 77.0 °F - 63.5 °F 63% 29.76 in 10.0 mi South 9.2 mph - N/A   Clear
2:55 PM 77.7 °F - 64.2 °F 63% 29.75 in 10.0 mi SE 6.9 mph - N/A   Clear
3:15 PM 79.0 °F - 63.9 °F 60% 29.75 in 10.0 mi South 9.2 mph 16.1 mph N/A   Clear
3:35 PM 79.0 °F - 63.5 °F 59% 29.73 in 10.0 mi South 8.1 mph - N/A   Clear
3:55 PM 79.2 °F - 63.9 °F 59% 29.73 in 10.0 mi SSE 10.4 mph - N/A   Clear
4:15 PM 81.5 °F 82.7 °F 63.0 °F 53% 29.72 in 10.0 mi South 8.1 mph - N/A   Clear
4:35 PM 79.9 °F - 62.6 °F 55% 29.72 in 10.0 mi SSW 6.9 mph - N/A   Clear
4:55 PM 82.6 °F 83.8 °F 63.1 °F 52% 29.72 in 10.0 mi SSE 9.2 mph - N/A   Clear
5:15 PM 82.2 °F 83.2 °F 62.6 °F 51% 29.72 in 10.0 mi SSE 9.2 mph - N/A   Clear
5:55 PM 82.2 °F 83.0 °F 61.9 °F 50% 29.72 in 10.0 mi SSE 6.9 mph - N/A   Clear
6:15 PM 82.0 °F 82.7 °F 61.3 °F 49% 29.72 in 10.0 mi South 8.1 mph - N/A   Clear
6:35 PM 79.9 °F - 62.1 °F 54% 29.72 in 10.0 mi SSE 8.1 mph - N/A   Clear
6:55 PM 79.5 °F - 62.1 °F 55% 29.71 in 10.0 mi SSE 9.2 mph - N/A   Clear
7:15 PM 78.4 °F - 62.2 °F 57% 29.73 in 10.0 mi SSE 4.6 mph - N/A   Clear
7:35 PM 77.7 °F - 62.2 °F 59% 29.75 in 10.0 mi Calm Calm - N/A   Clear
7:55 PM 75.4 °F - 47.1 °F 37% 29.79 in 10.0 mi North 11.5 mph - N/A   Scattered Clouds
8:15 PM 73.4 °F - 46.9 °F 39% 29.82 in 10.0 mi North 8.1 mph - N/A Thunderstorm Mostly Cloudy
8:35 PM 63.1 °F - 57.0 °F 80% 29.79 in 3.0 mi ESE 4.6 mph 16.1 mph 0.22 in Rain , Thunderstorm Light Thunderstorms and Rain
8:55 PM 64.9 °F - 59.0 °F 81% 29.80 in 10.0 mi Calm Calm - 0.22 in   Scattered Clouds
9:15 PM 64.4 °F - 59.5 °F 84% 29.81 in 10.0 mi Calm Calm - N/A   Clear
9:35 PM 64.4 °F - 61.0 °F 89% 29.82 in 10.0 mi SW 5.8 mph - N/A   Scattered Clouds
10:55 PM 61.7 °F - 59.0 °F 91% 29.86 in 10.0 mi NW 5.8 mph - N/A   Clear
11:15 PM 60.6 °F - 58.5 °F 93% 29.88 in 10.0 mi WSW 6.9 mph - N/A   Clear
11:55 PM 60.8 °F - 57.6 °F 89% 29.88 in 10.0 mi NW 3.5 mph - N/A   Clear